Weather History for Wheeler AAF, HI

Change the Weather History Date:

Thursday, August 28, 2014

  Actual Average Record
Temperature  
Mean Temperature 76 °F -  
Max Temperature 85 °F 81 °F 87 °F (1996)
Min Temperature 67 °F 68 °F 66 °F (2008)
Cooling Degree Days 11    
Growing Degree Days 26 (Base 50)    
Moisture  
Dew Point 65 °F    
Average Humidity 69    
Maximum Humidity 88    
Minimum Humidity 51    
Precipitation  
Precipitation 0.00 in - - ()
Sea Level Pressure  
Sea Level Pressure 29.88 in    
Wind  
Wind Speed 7 mph (North)    
Max Wind Speed 16 mph    
Max Gust Speed 22 mph    
Visibility 10 miles    
Events      
Averages and records for this station are not official NWS values.
T = Trace of Precipitation, MM = Missing Value Source: NWS Daily Summary

Daily Weather History Graph

Daily Weather History Graph

Search for Another Location

Airport:

Trip Planner

Search our weather history database for the weather conditions in past years. The results will help you decide how hot, cold, wet, or windy it might be!

Date:

Astronomy

Aug. 28, 2014 Rise Set
Actual Time 6:14 AM HST 6:51 PM HST
Civil Twilight 5:51 AM HST 7:14 PM HST
Nautical Twilight 5:25 AM HST 7:40 PM HST
Astronomical Twilight 4:58 AM HST 8:07 PM HST
Moon 8:50 AM HST (8/28) 8:52 PM HST (8/28)
Length of Visible Light 13h 22m
Length of Day
12h 37m
Waxing Crescent, 10% of the Moon is Illuminated
Aug 28
Waxing Crescent
Sep 2
First Quarter
Sep 8
Full
Sep 15
Last Quarter
Sep 23
New

Hourly Weather History & Observations

Time (HST) Temp. Heat Index Dew Point Humidity Pressure Visibility Wind Dir Wind Speed Gust Speed Precip Events Conditions
12:58 AM 69.4 °F - 65.3 °F 87% 29.90 in 10.0 mi Variable 1.2 mph - N/A   Mostly Cloudy
1:58 AM 69.8 °F - 65.3 °F 86% 29.88 in 10.0 mi NW 5.8 mph - N/A   Clear
2:58 AM 68.2 °F - 64.6 °F 88% 29.88 in 10.0 mi NW 4.6 mph - N/A   Partly Cloudy
3:58 AM 68.2 °F - 64.0 °F 87% 29.88 in 10.0 mi WNW 5.8 mph - N/A   Clear
4:58 AM 67.1 °F - 63.1 °F 87% 29.88 in 10.0 mi West 5.8 mph - N/A   Clear
5:58 AM 67.5 °F - 63.1 °F 86% 29.89 in 10.0 mi WNW 4.6 mph - N/A   Clear
6:58 AM 67.6 °F - 63.7 °F 87% 29.91 in 10.0 mi WNW 4.6 mph - N/A   Partly Cloudy
7:58 AM 74.8 °F - 66.0 °F 74% 29.91 in 10.0 mi Variable 3.5 mph - N/A   Clear
8:58 AM 78.8 °F - 66.0 °F 65% 29.92 in 10.0 mi NE 5.8 mph - N/A   Clear
9:58 AM 81.9 °F 83.2 °F 63.7 °F 54% 29.92 in 10.0 mi ENE 10.4 mph - N/A   Clear
10:58 AM 82.6 °F 83.8 °F 63.3 °F 52% 29.91 in 10.0 mi NE 13.8 mph - N/A   Clear
11:32 AM 82.4 °F 84.6 °F 66.2 °F 58% 29.92 in 10.0 mi ENE 12.7 mph 19.6 mph N/A   Clear
11:58 AM 84.0 °F 85.6 °F 64.4 °F 52% 29.88 in 10.0 mi ENE 11.5 mph 19.6 mph N/A   Clear
12:58 PM 83.1 °F 84.8 °F 64.9 °F 54% 29.88 in 10.0 mi ENE 13.8 mph 21.9 mph N/A   Mostly Cloudy
1:58 PM 85.1 °F 87.1 °F 65.7 °F 52% 29.85 in 10.0 mi NNE 13.8 mph 20.7 mph N/A   Partly Cloudy
2:58 PM 82.8 °F 84.3 °F 64.4 °F 54% 29.85 in 10.0 mi NE 15.0 mph - N/A   Partly Cloudy
3:33 PM 84.2 °F 85.6 °F 64.4 °F 51% 29.87 in 10.0 mi ENE 15.0 mph - N/A   Clear
3:58 PM 82.6 °F 84.1 °F 64.2 °F 54% 29.84 in 10.0 mi NE 16.1 mph 20.7 mph N/A   Clear
4:16 PM 82.4 °F 83.9 °F 64.4 °F 54% 29.87 in 10.0 mi ENE 12.7 mph - N/A   Clear
4:58 PM 81.5 °F 83.4 °F 65.3 °F 58% 29.84 in 10.0 mi NNE 10.4 mph - N/A   Clear
5:58 PM 79.0 °F - 66.0 °F 64% 29.84 in 10.0 mi NE 9.2 mph - N/A   Scattered Clouds
6:58 PM 76.8 °F - 65.8 °F 69% 29.88 in 10.0 mi NNE 8.1 mph - N/A   Partly Cloudy
7:58 PM 75.2 °F - 66.6 °F 74% 29.88 in 10.0 mi North 4.6 mph - N/A   Clear
8:58 PM 74.3 °F - 66.6 °F 77% 29.89 in 10.0 mi Variable 2.3 mph - N/A   Clear
9:58 PM 71.4 °F - 65.7 °F 82% 29.90 in 10.0 mi West 4.6 mph - N/A   Partly Cloudy
10:58 PM 70.2 °F - 65.5 °F 85% 29.90 in 10.0 mi West 4.6 mph - N/A   Clear
11:58 PM 70.9 °F - 65.5 °F 83% 29.90 in 10.0 mi WNW 5.8 mph - N/A   Clear